EW1390 Weather Reports


time (UTC)temp
C
wind
direction
speed
KPH
gust
KPH
rain 1hr
cm
rain 24hr
cm
rain mn
cm
humidity
%
barometer
mb
20260904134545 15 246 0.0 3.2 0.00 0.00 0.00 86 1005.0
20260904133043 15 246 0.0 4.8 0.00 0.00 0.00 86 1004.8
20260904131539 15 246 0.0 0.0 0.00 0.00 0.00 85 1004.7
20260904130039 16 246 0.0 0.0 0.00 0.00 0.00 85 1004.6
20260904124549 15 246 0.0 0.0 0.00 0.00 0.00 84 1004.5
20260904123041 16 246 0.0 0.0 0.00 0.00 0.00 83 1004.5
20260904121535 16 246 0.0 0.0 0.00 0.00 0.00 83 1004.4
20260904120033 16 246 0.0 0.0 0.00 0.00 0.00 82 1004.4
20260904114539 16 246 0.0 0.0 0.00 0.00 0.00 82 1004.3
20260904113039 16 246 0.0 0.0 0.00 0.00 0.00 82 1004.2
20260904111530 16 246 0.0 0.0 0.00 0.00 0.00 82 1004.3
20260904110028 16 246 0.0 3.2 0.00 0.00 0.00 81 1004.2
20260904104529 16 246 0.0 3.2 0.00 0.00 0.00 81 1004.2
20260904103036 16 246 0.0 0.0 0.00 0.00 0.00 80 1004.1
20260904101525 16 246 0.0 0.0 0.00 0.00 0.00 80 1004.0
20260904100024 16 246 0.0 0.0 0.00 0.00 0.00 80 1003.9
20260904094530 16 246 0.0 3.2 0.00 0.00 0.00 81 1003.9
20260904093024 16 246 0.0 1.6 0.00 0.00 0.00 81 1003.8
20260904091523 16 246 0.0 4.8 0.00 0.00 0.00 81 1003.9
20260904090021 16 246 0.0 6.4 0.00 0.00 0.00 81 1004.0
20260904084521 16 337 0.0 3.2 0.00 0.00 0.00 81 1004.0
20260904083019 16 269 1.6 3.2 0.00 0.00 0.00 80 1004.1
20260904081517 16 271 0.0 8.0 0.00 0.00 0.00 80 1004.2
20260904080016 16 248 0.0 4.8 0.00 0.00 0.00 79 1004.2
20260904074515 16 248 0.0 6.4 0.00 0.00 0.00 79 1004.0
20260904073012 17 247 0.0 4.8 0.00 0.00 0.00 78 1004.0
20260904071511 17 247 0.0 0.0 0.00 0.00 0.00 77 1003.9
20260904070008 17 247 0.0 0.0 0.00 0.00 0.00 76 1004.0
20260904064508 17 247 0.0 0.0 0.00 0.00 0.00 76 1004.0
20260904063009 17 247 0.0 0.0 0.00 0.00 0.00 76 1004.0
20260904061507 17 247 0.0 1.6 0.00 0.00 0.00 76 1004.0
20260904060010 17 247 0.0 1.6 0.00 0.00 0.00 75 1004.2
20260904054508 17 247 0.0 4.8 0.00 0.00 0.00 75 1004.2
20260904053006 17 32 0.0 4.8 0.00 0.00 0.00 75 1004.3
20260904051514 17 271 0.0 3.2 0.00 0.00 0.00 74 1004.4
20260904050004 17 279 0.0 4.8 0.00 0.00 0.00 74 1004.5
20260904044504 17 13 0.0 4.8 0.00 0.00 0.00 73 1004.6
20260904043003 17 19 0.0 3.2 0.00 0.00 0.00 72 1004.6
20260904041503 17 278 0.0 0.0 0.00 0.00 0.00 70 1004.4
20260904040002 17 278 0.0 0.0 0.00 0.00 0.00 68 1004.2
20260904034501 18 278 0.0 0.0 0.00 0.00 0.00 66 1004.0
20260904033003 18 278 0.0 0.0 0.00 0.00 0.00 64 1003.9
20260904031602 19 278 0.0 0.0 0.00 0.00 0.00 62 1003.8
20260904030059 20 278 0.0 3.2 0.00 0.00 0.00 61 1003.8
20260904024604 20 278 0.0 4.8 0.00 0.00 0.00 58 1003.9
20260904023058 21 54 0.0 3.2 0.00 0.00 0.00 53 1003.9
20260904021601 22 278 0.0 3.2 0.00 0.00 0.00 46 1003.8
20260904020059 22 278 0.0 4.8 0.00 0.00 0.00 45 1003.9
20260904014637 23 302 0.0 4.8 0.00 0.00 0.00 44 1003.9
20260904013057 23 262 0.0 6.4 0.00 0.00 0.00 41 1004.1
20260904011551 23 139 0.0 8.0 0.00 0.00 0.00 37 1004.0
20260904010050 24 310 0.0 6.4 0.00 0.00 0.00 34 1004.2
20260904004549 25 188 0.0 3.2 0.00 0.00 0.00 33 1004.3
20260904003047 25 296 0.0 11.3 0.00 0.00 0.00 33 1004.3
20260904001546 25 248 0.0 6.4 0.00 0.00 0.00 36 1004.3
20260904000126 24 286 1.6 8.0 0.00 0.00 0.00 37 1004.4
20260903234543 25 178 0.0 9.7 0.00 0.00 0.00 38 1004.5
20260903233042 25 196 0.0 6.4 0.00 0.00 0.00 38 1004.6
20260903231541 25 327 0.0 6.4 0.00 0.00 0.00 39 1004.8
20260903230038 25 265 0.0 14.5 0.00 0.00 0.00 41 1005.0
20260903224545 25 246 0.0 4.8 0.00 0.00 0.00 41 1005.2
20260903223036 25 113 1.6 8.0 0.00 0.00 0.00 42 1005.4
20260903221533 25 121 1.6 9.7 0.00 0.00 0.00 42 1005.7
20260903220033 25 213 1.6 12.9 0.00 0.00 0.00 43 1005.8
20260903214535 25 320 3.2 16.1 0.00 0.00 0.00 43 1005.7
20260903213036 25 80 3.2 11.3 0.00 0.00 0.00 44 1005.8
20260903211536 25 230 1.6 14.5 0.00 0.00 0.00 44 1005.9
20260903210028 25 112 0.0 12.9 0.00 0.00 0.00 44 1005.9
20260903204525 25 190 1.6 12.9 0.00 0.00 0.00 45 1006.0
20260903203026 24 133 0.0 12.9 0.00 0.00 0.00 46 1005.9
20260903201521 24 222 3.2 9.7 0.00 0.00 0.00 45 1006.0
20260903200024 23 140 1.6 11.3 0.00 0.00 0.00 46 1006.3
20260903194523 24 221 1.6 8.0 0.00 0.00 0.00 43 1006.4
20260903193016 23 323 0.0 12.9 0.00 0.00 0.00 45 1006.5
20260903191528 23 215 1.6 11.3 0.00 0.00 0.00 44 1006.8
20260903190011 24 213 0.0 8.0 0.00 0.00 0.00 45 1007.0
20260903184511 23 249 3.2 11.3 0.00 0.00 0.00 46 1007.1
20260903183006 23 208 0.0 16.1 0.00 0.00 0.00 47 1007.3
20260903181603 22 110 0.0 12.9 0.00 0.00 0.00 48 1007.3
20260903180100 22 231 1.6 11.3 0.00 0.00 0.00 49 1007.2
20260903180001 22 129 1.6 11.3 0.00 0.00 0.00 50 1007.2
20260903174557 22 138 1.6 9.7 0.00 0.00 0.00 52 1007.1
20260903173054 21 232 1.6 6.4 0.00 0.00 0.00 53 1007.3
20260903171552 20 235 0.0 4.8 0.00 0.00 0.00 58 1007.5
20260903170145 18 238 0.0 8.0 0.00 0.00 0.00 62 1007.6
20260903164541 16 219 0.0 3.2 0.00 0.00 0.00 73 1007.8
20260903163047 14 219 0.0 1.6 0.00 0.00 0.00 83 1007.7
20260903161532 12 219 0.0 0.0 0.00 0.00 0.00 87 1007.8
20260903160032 12 219 0.0 0.0 0.00 0.00 0.00 89 1008.0
20260903154531 11 219 0.0 0.0 0.00 0.00 0.00 89 1008.1
20260903153029 10 219 0.0 0.0 0.00 0.00 0.00 89 1008.2
20260903151530 10 219 0.0 0.0 0.00 0.00 0.00 88 1008.2
20260903150037 9 219 0.0 0.0 0.00 0.00 0.00 88 1008.1
20260903144528 9 219 0.0 0.0 0.00 0.00 0.00 88 1008.1
20260903143035 8 219 0.0 0.0 0.00 0.00 0.00 87 1008.0
20260903141526 8 219 0.0 0.0 0.00 0.00 0.00 87 1007.9
20260903140026 8 219 0.0 0.0 0.00 0.00 0.00 87 1007.8